Find Starlink 32832

NORAD ID: 63040 Int'l Des: 2025-034 Owner: SPXS Country: US Constellation: starlink operational
LEOCIRCULAR

現在のビュー

3D地球を読み込み中...

About Starlink 32832

Starlink 32832 (NORAD 63040) is a starlink constellation satellite (v2 mini) launched Feb 18, 2025 by SPXS of US. It operates in LEO, CIRCULAR orbit with a mass of 730.00 kg.

次回通過

Passes for default location (London). Set your location on the main map for personalized predictions.

高度履歴

Loading altitude history...

軌道要素

1 63040U 25034M 26263.87919511 .00016263 00000-0 53450-3 0 9995
2 63040 53.1564 69.8943 0002759 94.4270 265.7046 15.31710290 88990
Epoch: Sep 20, 2026 • Age: 10 hours

現在のステータス

高度 472.4 km
遠地点 / 近地点 N/A
速度 7.63 km/s
衛星直下点 -5.13°S, 141.97°E
打ち上げ日 Feb 18, 2025
運用期間 1.5 years
タイプ internet

技術仕様

分類 Payload
質量 730.00 kg
乾燥質量 700.00 kg
長さ 0.30 m
スパン 29.00 m
形状 ? Box + pan
製造者 SPXS
バスタイプ Starlink V2M
フェーズステータス In Orbit
所有者/国 SPXS/US

Most Searched